User: anonymous   Login
Location: Ambatotampy
(18.8181°S, 47.6186°E)
Time: 00:01:55
(UTC+00:00)
Language:

SJ 16-02 - Orbit

View from above orbital plane
View from above orbital plane
View from above satellite
View from above satellite

Ground track
Ground track

The orbit data is extracted from the following two-line orbital elements,

1 41634U 16043A   21110.53645854  .00000264  00000-0  33488-4 0  9999
2 41634  75.0036 218.4961 0008470 275.0205  85.0004 14.85790007260840
Epoch (UTC): 20 April 2021 12:52:30
Eccentricity: 0.0008470
inclination: 75.0036°
perigee height: 605 km
apogee height: 617 km
right ascension of ascending node: 218.4961°
argument of perigee: 275.0205°
revolutions per day: 14.85790007
mean anomaly at epoch: 85.0004°
orbit number at epoch: 26084

The dashed part of the orbit path shows where the satellite is in the earth's shadow,  

DLR